Regional Weather Roundup
Issued by NWS Kansas City/Pleasant Hill, MO

Home | Current Version | Previous Version | Graphics & Text | Print | Product List | Glossary Off
Versions: 1 2 3 4 5 6 7 8 9 10 11 12 13 14 15 16 17 18 19 20 21 22 23 24 25 26 27 28 29 30 31 32 33 34 35 36 37 38 39 40 41 42 43 44 45 46 47 48 49 50

313
ASUS43 KEAX 252110
RWREAX

WEATHER ROUNDUP FOR EASTERN KANSAS AND NORTHWEST MISSOURI
NATIONAL WEATHER SERVICE KANSAS CITY/PLEASANT HILL MO
400 PM CDT WED APR 25 2018

KSZ040-057-103>105-MOZ028-029-037-043-252200-
...KANSAS CITY METROPOLITAN AREA...

CITY           SKY/WX    TMP DP  RH WIND       PRES   REMARKS
K.C. INTL      LGT RAIN  49  47  93 N13       30.10F
K.C. DOWNTOWN  LGT RAIN  50  46  86 N8        30.10F
LEES SUMMIT    LGT RAIN  49  48  97 N12       30.09F
OLATHE - IXD   LGT RAIN  50  48  93 NE12      30.09F FOG
OLATHE - OJC   RAIN      48  47  96 NE12      30.08F FOG
LAWRENCE       LGT RAIN  50  48  93 N5        30.10F

$$

MOZ001>008-011>017-020>025-030>033-038>040-044>046-053-054-252200-
...NORTHERN AND CENTRAL MISSOURI...

CITY           SKY/WX    TMP DP  RH WIND       PRES   REMARKS
ST. JOSEPH     LGT RAIN  53  48  83 N8        30.11F
MOSBY          LGT RAIN  48  46  93 N8        30.10F
WARRENSBURG    LGT RAIN  48  46  93 N7        30.08F
WHITEMAN AFB   LGT RAIN  51  49  93 N8        30.04F FOG
CLINTON        LGT RAIN  50  50 100 NE8       30.08F
SEDALIA        LGT RAIN  52  50  93 N8        30.09F
WARSAW         NOT AVBL
CHILLICOTHE      N/A     52  47  83 N3        30.11F
KIRKSVILLE     CLOUDY    56  44  64 NW5       30.07F

$$

MOZ041-047>049-056>058-063>065-088>090-097-252200-
...EASTERN AND SOUTHERN MISSOURI...

CITY           SKY/WX    TMP DP  RH WIND       PRES   REMARKS
ST. LOUIS INTL CLOUDY    64  53  67 N10       30.00F
SPIRIT OF STL  CLOUDY    66  51  58 N8        29.99F
COLUMBIA       LGT RAIN  53  48  83 NW10      30.07S
JEFFERSON CITY LGT RAIN  56  46  69 NW12      30.06S
ROLLA          CLOUDY    58  44  60 W9        30.05S
OSAGE BEACH    LGT RAIN  56  51  84 W10       30.07F
SPRINGFIELD    LGT RAIN  55  50  83 SE3       30.04F
BRANSON        LGT RAIN  54  54 100 CALM      30.05F FOG
JOPLIN         LGT RAIN  56  53  90 CALM      30.03F FOG
WEST PLAINS    CLOUDY    58  48  69 W10       30.05F

$$

IAZ060-094-KSZ022-034>040-054-083-096-NEZ052-066-093-252200-
...KANSAS...SOUTHEAST NEBRASKA AND IOWA...

CITY           SKY/WX    TMP DP  RH WIND       PRES   REMARKS
TOPEKA         LGT RAIN  50  49  96 N12       30.10F
MANHATTAN      LGT RAIN  50  46  86 N9        30.13F
EMPORIA        LGT RAIN  49  46  90 N12       30.09F
CHANUTE        LGT RAIN  52  51  97 N8        30.05F
WICHITA        CLOUDY    48  44  86 N20       30.12F
OMAHA          MOSUNNY   61  36  39 CALM      30.10F
LINCOLN        MOSUNNY   56  34  43 VRB6      30.15F
FALLS CITY     CLOUDY    54  41  61 N10       30.12F
LAMONI         CLOUDY    56  41  57 W10       30.08F
DES MOINES     MOSUNNY   65  28  24 N9        30.06F

$$





USA.gov is the U.S. government's official web portal to all federal, state and local government web resources and services.